Location: Hodgeman County Ambulance
(38.0844°N, 99.8949°W)
Time: 20:57:38
(UTC+00:00)

X-37B - Pass Details

Date: 27 September 2021
Orbit: 385 x 389 km, 45.0° (Epoch: 17 October)

Event Time Altitude Azimuth Distance (km) Brightness Sun altitude
Exits shadow 11:03:16 22° 338° (NNW) 916 2.3 -18.2°
Maximum altitude 11:03:51 23° 355° (N) 882 2.4 -18.1°
Drops below altitude 10° 11:06:28 10° 51° (NE) 1,414 4.4 -17.6°
Sets 11:08:49 0° 66° (ENE) 2,270 6.1 -17.1°
